[[{"header":{"parameterUnit":"m.s-1","parameterCategory":1,"la1":30.2991,"la2":30.254,"lo1":-89.0895,"lo2":-89.0444,"dy":0.0017,"dx":0.0017,"nx":28,"ny":28,"refTime":"2024-10-17T03:00:00:Z","depth":0,"parameterNumber":2,"parameterNumberName":"U-component_of_WINDS"},"data":[0,0,0,0,0,0,0,0,0,0,0,0,0,0,0,0,0,0,0,0,0,0,0,0,0,0,0,0,0,0,0,0,0,0,0,0,0,0,0,0,0,0,0,0,0,0,0,0,0,0,0,0,0,0,0,0,0,0,-4.6369,-4.6369,0,-4.6372,-4.6372,-4.6372,-4.623,-4.6227,-4.6223,-4.6219,-4.6224,-4.6227,-4.6231,0,0,0,0,0,0,0,0,0,0,0,0,0,-4.6244,-4.6247,-4.6369,-4.6369,-4.6369,-4.6372,-4.6372,-4.6372,-4.6231,-4.6226,-4.6222,-4.6218,-4.6222,-4.6227,-4.6231,0,0,0,0,0,0,0,0,0,0,0,0,0,-4.6278,-4.6248,-4.6369,-4.6299,-4.6293,-4.6372,-4.6372,-4.6372,-4.6232,-4.6226,-4.6221,-4.6215,-4.6221,-4.6226,-4.6232,-4.6378,0,0,-4.6248,-4.6251,0,0,0,0,0,0,0,0,-4.6276,-4.6283,-4.631,-4.6304,-4.6297,-4.6295,-4.6329,-4.6374,-4.6233,-4.6255,-4.6219,-4.6213,-4.6252,-4.6255,-4.6267,-4.6378,-4.6378,-4.6249,-4.6252,-4.6254,-4.6256,0,0,0,0,0,0,0,-4.6274,-4.6282,-4.637,-4.631,-4.6303,-4.6268,-4.6267,-4.6337,-4.6285,-4.6253,-4.6243,-4.6245,-4.6248,-4.6263,-4.6266,-4.6378,-4.6249,-4.6253,-4.6257,-4.6259,-4.661,-4.6616,0,0,0,0,0,0,-4.6281,-4.6281,-4.637,-4.637,-4.6273,-4.6275,-4.6274,-4.6302,-4.6284,-4.6276,-4.625,-4.6238,-4.6256,-4.626,-4.6266,-4.6437,-4.6254,-4.6259,-4.6262,-4.6604,-4.6611,-4.6618,0,0,0,0,0,0,-4.6279,-4.6291,-4.637,-4.6323,-4.633,-4.6283,-4.6316,-4.6305,-4.6319,-4.6282,-4.6272,-4.6274,-4.6252,-4.6258,-4.6351,-4.6435,-4.6262,-4.6267,-4.6597,-4.6606,-4.6615,-4.678,0,0,0,0,0,0,-4.6276,-4.6291,-4.6345,-4.6325,-4.6333,-4.6455,-4.6321,-4.6309,-4.6329,-4.6314,-4.6302,-4.6295,-4.6248,-4.6344,-4.6357,-4.644,-4.6271,-4.6589,-4.6601,-4.6612,-4.6767,-4.6794,-4.6817,0,0,0,0,0,-4.6272,-4.6392,-4.6349,-4.636,-4.6401,-4.646,-4.6465,-4.6408,-4.6336,-4.6391,-4.6367,-4.6295,-4.6424,-4.6355,-4.6368,-4.6454,-4.6583,-4.6598,-4.6611,-4.6756,-4.6789,-4.6816,0,0,0,0,0,0,-4.6424,-4.6388,-4.634,-4.6456,-4.6463,-4.6436,-4.6504,-4.6444,-4.6471,-4.6456,-4.6385,-4.6384,-4.6488,-4.6479,-4.6403,-4.6595,-4.6491,-4.6508,-4.6597,-4.6627,-4.6652,-4.6652,-4.6275,0,0,0,0,0,-4.647,-4.6521,-4.6487,-4.6594,-4.6599,-4.6552,-4.6575,-4.6531,-4.6534,-4.6536,-4.6519,-4.6526,-4.6567,-4.6597,-4.6633,-4.6764,-4.6761,-4.683,-4.6855,-4.6876,-4.6892,-4.6962,-4.6993,-4.6663,-4.6663,-4.6662,0,0,-4.6568,-4.6555,-4.6591,-4.6624,-4.6623,-4.6678,-4.6555,-4.6618,-4.6658,-4.6546,-4.6633,-4.6621,-4.6623,-4.6737,-4.6786,-4.6733,-4.6982,-4.6893,-4.691,-4.6915,-4.6979,-4.7011,-4.7039,-4.6672,-4.667,-4.6669,0,0,-4.6774,-4.6769,-4.6857,-4.6859,-4.686,-4.6827,-4.6849,-4.6832,-4.6819,-4.6905,-4.6823,-4.687,-4.6943,-4.6949,-4.6961,-4.7171,-4.7106,-4.7184,-4.7315,-4.7385,-4.7411,-4.7433,-4.751,-4.7538,-4.72,-4.7201,-4.7201,0,-4.6896,-4.6975,-4.6911,-4.698,-4.6997,-4.6897,-4.6987,-4.6992,-4.7005,-4.702,-4.696,-4.7051,-4.7045,-4.7159,-4.7211,-4.7224,-4.7247,-4.7186,-4.7412,-4.7434,-4.7454,-4.7526,-4.7555,-4.721,-4.7209,-4.7208,-4.7207,0,-4.7125,-4.7181,-4.7253,-4.7268,-4.7293,-4.7372,-4.7321,-4.7354,-4.7307,-4.7282,-4.7371,-4.7361,-4.7394,-4.7418,-4.7373,-4.7526,-4.7493,-4.7424,-4.7319,-4.7497,-4.7563,-4.759,-4.7224,-4.7221,-4.7218,-4.7215,0,0,-4.7428,-4.7406,-4.7434,-4.744,-4.7433,-4.7476,-4.7551,-4.7583,-4.7613,-4.7626,-4.7688,-4.7752,-4.7688,-4.7703,-4.7658,-4.7719,-4.7887,-4.7641,-4.764,-4.7689,-4.8057,-4.8111,-4.8143,-4.7844,-4.7848,-4.7852,-4.8057,0,-4.7629,-4.7756,-4.77,-4.7833,-4.7885,-4.7791,-4.7856,-4.786,-4.7838,-4.788,-4.7855,-4.7903,-4.7813,-4.7822,-4.7878,-4.7855,-4.796,-4.7839,-4.7902,-4.7905,-4.7906,-4.8178,-4.8234,-4.8428,-4.8083,-4.8087,-4.809,0,-4.7881,-4.7904,-4.8042,-4.8027,-4.8047,-4.8107,-4.8132,-4.8172,-4.8175,-4.8154,-4.8171,-4.8113,-4.8186,-4.808,-4.8181,-4.81,-4.8123,-4.8115,-4.8121,-4.8126,-4.801,-4.8192,-4.8488,-4.8519,-4.813,-4.8127,-4.8124,0,-4.809,-4.8155,-4.8246,-4.8254,-4.8239,-4.8283,-4.8279,-4.8276,-4.8299,-4.8321,-4.8336,-4.8367,-4.8384,-4.841,-4.8362,-4.8289,-4.847,-4.836,-4.8457,-4.8458,-4.85,-4.8499,-4.8807,-4.8513,-4.8512,-4.8512,-4.8511,0,-4.8322,-4.841,-4.834,-4.8397,-4.8494,-4.8429,-4.8527,-4.8512,-4.851,-4.8563,-4.8483,-4.8535,-4.8467,-4.8512,-4.8474,-4.8565,-4.8573,-4.8559,-4.8549,-4.8568,-4.857,-4.8582,-4.8568,-4.8519,-4.8518,-4.8516,-4.8515,0,-4.8572,-4.8529,-4.8622,-4.86,-4.8596,-4.8669,-4.865,-4.8702,-4.8674,-4.8742,-4.8754,-4.8711,-4.876,-4.8713,-4.876,-4.8734,-4.8856,-4.8825,-4.8855,-4.8847,-4.8947,-4.8939,-4.9276,-4.9317,-4.8995,-4.8998,-4.9001,0,-4.8724,-4.879,-4.8775,-4.8804,-4.8805,-4.8853,-4.8876,-4.8815,-4.8843,-4.8851,-4.8902,-4.8944,-4.8975,-4.9057,-4.9031,-4.9066,-4.9036,-4.9152,-4.9041,-4.9059,-4.904,-4.9038,-4.9045,-4.9175,-4.9179,-4.9182,-4.9184,0,-4.8998,-4.8973,-4.901,-4.904,-4.9069,-4.909,-4.9104,-4.9133,-4.907,-4.9105,-4.9154,-4.9178,-4.9225,-4.9268,-4.9296,-4.9291,-4.9229,-4.9219,-4.9244,-4.9265,-4.928,-4.9275,-4.8919,-4.9212,-4.9209,-4.9207,-4.9206,-4.9205,-4.9205,-4.926,-4.9258,-4.9301,-4.9305,-4.9321,-4.9369,-4.9347,-4.9386,-4.942,-4.9381,-4.9442,-4.9443,-4.9473,-4.9477,-4.9524,-4.9475,-4.9511,-4.952,-4.953,-4.9545,-4.9272,-4.9528,-4.9527,-4.9527,-4.9526,-4.9525,0,-4.9476,-4.947,-4.9511,-4.9534,-4.9568,-4.9505,-4.9517,-4.9551,-4.9605,-4.9611,-4.9643,-4.97,-4.9741,-4.9718,-4.9754,-4.9797,-4.9769,-4.9808,-4.9806,-4.9806,-4.9586,-4.9562,-4.983,-4.983,-4.983,-4.983,-4.983,-4.983,-4.9622,-4.9712,-4.9687,-4.9779,-4.9772,-4.983,-4.9843,-4.9857,-4.9862,-4.9929,-4.9963,-4.9947,-4.9942,-4.9977,-5.0013,-5.0005,-5.0023,-5.0074,-5.0056,-4.9851,-4.9821,-4.9793,-4.977,-5.0078,-5.0078,-5.0272,-5.0274,-5.0276]},{"header":{"parameterUnit":"m.s-1","parameterCategory":1,"la1":30.2991,"la2":30.254,"lo1":-89.0895,"lo2":-89.0444,"dy":0.0017,"dx":0.0017,"nx":28,"ny":28,"refTime":"2024-10-17T03:00:00:Z","depth":0,"parameterNumber":3,"parameterNumberName":"V-component_of_WINDS"},"data":[0,0,0,0,0,0,0,0,0,0,0,0,0,0,0,0,0,0,0,0,0,0,0,0,0,0,0,0,0,0,0,0,0,0,0,0,0,0,0,0,0,0,0,0,0,0,0,0,0,0,0,0,0,0,0,0,0,0,-2.5707,-2.5707,0,-2.5697,-2.5697,-2.5697,-2.5667,-2.5666,-2.5666,-2.5665,-2.5654,-2.5655,-2.5655,0,0,0,0,0,0,0,0,0,0,0,0,0,-2.5697,-2.5697,-2.5707,-2.5707,-2.5706,-2.5697,-2.5697,-2.5697,-2.5667,-2.5666,-2.5665,-2.5665,-2.5654,-2.5654,-2.5655,0,0,0,0,0,0,0,0,0,0,0,0,0,-2.5696,-2.5697,-2.5707,-2.569,-2.5689,-2.5697,-2.5697,-2.5697,-2.5667,-2.5666,-2.5665,-2.5664,-2.5654,-2.5654,-2.5655,-2.5678,0,0,-2.5656,-2.5657,0,0,0,0,0,0,0,0,-2.5696,-2.5696,-2.5693,-2.5692,-2.569,-2.5682,-2.569,-2.5691,-2.5667,-2.5675,-2.5665,-2.5664,-2.5664,-2.5664,-2.5664,-2.5677,-2.5677,-2.5656,-2.5657,-2.5657,-2.5657,0,0,0,0,0,0,0,-2.5696,-2.5696,-2.5703,-2.5693,-2.5691,-2.5683,-2.5682,-2.569,-2.5675,-2.5675,-2.5672,-2.5672,-2.5663,-2.5664,-2.5664,-2.5677,-2.5656,-2.5657,-2.5657,-2.5657,-2.5706,-2.5707,0,0,0,0,0,0,-2.5699,-2.5697,-2.5703,-2.5703,-2.569,-2.5684,-2.5682,-2.5686,-2.5675,-2.5673,-2.5673,-2.567,-2.5663,-2.5663,-2.5663,-2.5688,-2.5657,-2.5657,-2.5658,-2.5705,-2.5706,-2.5707,0,0,0,0,0,0,-2.5698,-2.5699,-2.5704,-2.5699,-2.5699,-2.5685,-2.5689,-2.5686,-2.5687,-2.5674,-2.5671,-2.5676,-2.5663,-2.5663,-2.5674,-2.5687,-2.5658,-2.5658,-2.5704,-2.5706,-2.5707,-2.5739,0,0,0,0,0,0,-2.5698,-2.57,-2.5709,-2.5699,-2.5699,-2.5715,-2.569,-2.5687,-2.5688,-2.5685,-2.5676,-2.5674,-2.5662,-2.5673,-2.5675,-2.5687,-2.5659,-2.5703,-2.5705,-2.5706,-2.5736,-2.5741,-2.5745,0,0,0,0,0,-2.5698,-2.5718,-2.5709,-2.571,-2.5711,-2.5716,-2.5716,-2.5702,-2.5689,-2.5697,-2.5689,-2.5674,-2.5686,-2.5675,-2.5676,-2.5689,-2.5702,-2.5704,-2.5706,-2.5734,-2.574,-2.5745,0,0,0,0,0,0,-2.573,-2.5717,-2.5707,-2.5725,-2.5722,-2.5711,-2.5722,-2.5709,-2.5709,-2.5707,-2.5689,-2.5687,-2.5701,-2.5696,-2.5684,-2.571,-2.5691,-2.5694,-2.5712,-2.5718,-2.5722,-2.5722,-2.5659,0,0,0,0,0,-2.5739,-2.5745,-2.5733,-2.575,-2.5749,-2.5736,-2.5738,-2.5727,-2.5723,-2.5722,-2.5714,-2.571,-2.5713,-2.5715,-2.5717,-2.5736,-2.5732,-2.5745,-2.5749,-2.5753,-2.5755,-2.5763,-2.5768,-2.5715,-2.5715,-2.5715,0,0,-2.5758,-2.5751,-2.5756,-2.5756,-2.5753,-2.5759,-2.5735,-2.5743,-2.5746,-2.5723,-2.5733,-2.5727,-2.5722,-2.5736,-2.5743,-2.5733,-2.5769,-2.5756,-2.5759,-2.5759,-2.5766,-2.5771,-2.5775,-2.5716,-2.5716,-2.5716,0,0,-2.5795,-2.5791,-2.5804,-2.5801,-2.5796,-2.5786,-2.5789,-2.578,-2.5775,-2.5785,-2.5767,-2.5771,-2.5777,-2.5773,-2.5772,-2.5806,-2.5792,-2.5807,-2.583,-2.5837,-2.5841,-2.5845,-2.5856,-2.586,-2.5809,-2.5809,-2.5809,0,-2.5819,-2.5827,-2.5812,-2.5821,-2.5821,-2.5799,-2.5811,-2.5809,-2.5804,-2.5804,-2.5794,-2.5799,-2.5794,-2.5807,-2.5815,-2.5815,-2.5817,-2.5808,-2.5842,-2.5846,-2.5849,-2.5859,-2.5863,-2.5811,-2.5811,-2.5811,-2.5811,0,-2.5856,-2.5862,-2.5873,-2.5869,-2.587,-2.5881,-2.5866,-2.5869,-2.5858,-2.585,-2.5859,-2.5852,-2.5851,-2.5854,-2.5843,-2.5865,-2.5858,-2.5845,-2.5826,-2.5856,-2.5865,-2.5869,-2.5814,-2.5813,-2.5813,-2.5812,0,0,-2.5913,-2.59,-2.5904,-2.5901,-2.5893,-2.5897,-2.5906,-2.5905,-2.5907,-2.5905,-2.5911,-2.5915,-2.5902,-2.5901,-2.589,-2.5897,-2.5922,-2.5882,-2.5882,-2.5889,-2.5943,-2.5952,-2.5957,-2.5913,-2.5913,-2.5914,-2.5943,0,-2.5947,-2.5962,-2.5948,-2.5965,-2.5969,-2.5948,-2.5956,-2.5951,-2.5943,-2.5945,-2.5936,-2.5939,-2.5923,-2.5921,-2.5927,-2.5918,-2.5932,-2.5916,-2.5917,-2.5917,-2.5918,-2.5962,-2.5972,-2.6,-2.5947,-2.5947,-2.5948,0,-2.5989,-2.5988,-2.6005,-2.5994,-2.5996,-2.6003,-2.6,-2.6003,-2.5996,-2.599,-2.5988,-2.5974,-2.5981,-2.5962,-2.597,-2.5959,-2.5959,-2.5954,-2.5955,-2.5954,-2.5934,-2.5961,-2.6008,-2.6012,-2.5953,-2.5953,-2.5952,0,-2.6027,-2.603,-2.604,-2.6038,-2.6027,-2.6032,-2.6027,-2.602,-2.602,-2.6017,-2.6017,-2.6015,-2.6014,-2.6013,-2.5998,-2.5987,-2.6007,-2.5988,-2.6001,-2.6001,-2.6006,-2.6006,-2.6053,-2.6008,-2.6007,-2.6007,-2.6007,0,-2.6066,-2.6077,-2.6057,-2.6063,-2.6074,-2.6058,-2.6069,-2.6062,-2.6055,-2.6059,-2.6041,-2.6045,-2.6026,-2.6027,-2.6016,-2.6024,-2.6024,-2.6018,-2.6014,-2.6019,-2.6019,-2.6018,-2.6015,-2.6008,-2.6008,-2.6008,-2.6008,0,-2.611,-2.6097,-2.6107,-2.6095,-2.6092,-2.61,-2.6089,-2.6094,-2.6085,-2.6089,-2.6089,-2.6074,-2.6075,-2.606,-2.6058,-2.6051,-2.6062,-2.6056,-2.6065,-2.6062,-2.6075,-2.6074,-2.6122,-2.6127,-2.608,-2.608,-2.6081,0,-2.6135,-2.6143,-2.6131,-2.6133,-2.6129,-2.6131,-2.6131,-2.6114,-2.6114,-2.6107,-2.6112,-2.6111,-2.6109,-2.6111,-2.6099,-2.6097,-2.609,-2.6107,-2.6089,-2.6093,-2.6088,-2.6088,-2.6088,-2.6111,-2.6111,-2.6112,-2.6112,0,-2.6181,-2.6174,-2.6174,-2.6171,-2.6171,-2.6169,-2.6165,-2.6167,-2.6149,-2.615,-2.615,-2.6148,-2.6146,-2.6144,-2.614,-2.6134,-2.6119,-2.6118,-2.612,-2.6124,-2.6128,-2.6125,-2.6073,-2.6117,-2.6116,-2.6116,-2.6115,-2.6115,-2.6215,-2.622,-2.6213,-2.6213,-2.6208,-2.6205,-2.6208,-2.6199,-2.6199,-2.6195,-2.6185,-2.6187,-2.6179,-2.6171,-2.6166,-2.6166,-2.6158,-2.6162,-2.6163,-2.6164,-2.6166,-2.6129,-2.6166,-2.6166,-2.6165,-2.6165,-2.6165,0,-2.6258,-2.6252,-2.6252,-2.6247,-2.6247,-2.6234,-2.6229,-2.6229,-2.6231,-2.6225,-2.6223,-2.6223,-2.6221,-2.6209,-2.6206,-2.6208,-2.6201,-2.6208,-2.6207,-2.6205,-2.6174,-2.6172,-2.6213,-2.6213,-2.6213,-2.6213,-2.6213,-2.6213,-2.628,-2.6288,-2.628,-2.6285,-2.6278,-2.6279,-2.6277,-2.6273,-2.6268,-2.6268,-2.6267,-2.6259,-2.625,-2.6246,-2.6243,-2.624,-2.6239,-2.6247,-2.6241,-2.6212,-2.6208,-2.6203,-2.6201,-2.6247,-2.6247,-2.6272,-2.6272,-2.6272]}]]